Lid_Strength_Index
9 9 9 9 10 9 10 9 12 10 10 8 7 7 6 5 4 4 4 3 4 4 4 5 4 3 3 3 3 2 2 2 3 3 3 3 3 3 3 2 2 1 1 1
11 9 9 10 9 9 9 9 9 9 11 6 6 5 5 5 5 5 4 4 4 5 5 5 4 4 3 3 3 2 2 3 3 3 3 2 2 1 1 2 1 2 1 2
12 9 10 12 10 9 8 8 8 11 8 6 6 6 5 5 5 4 4 4 4 5 4 4 4 3 4 3 2 2 2 2 3 3 4 4 3 4 3 3 2 2 2 2
11 10 15 10 7 7 8 7 7 7 7 6 6 5 4 3 4 4 4 4 4 4 4 3 3 2 4 3 3 3 2 2 3 2 4 4 4 4 4 4 4 4 4 4
12 11 11 10 8 8 8 9 6 6 6 6 5 4 5 3 4 4 3 4 4 3 4 3 2 3 3 3 3 3 3 3 3 2 2 4 3 3 4 3 3 3 4 4
9 12 14 9 7 5 5 12 6 6 6 6 5 8 7 3 3 3 3 3 3 3 3 3 3 2 3 3 3 4 3 3 2 2 3 4 2 2 3 2 2 3 4 4
10 10 10 7 6 5 11 11 5 5 5 5 6 5 3 3 3 3 3 3 3 3 4 4 3 3 3 3 3 3 2 2 3 3 3 2 2 2 2 4 4 3 3 1
9 11 13 5 6 9 7 5 4 4 4 4 4 4 4 4 4 4 4 3 3 4 4 3 3 3 4 3 2 3 2 3 3 2 2 2 1 2 1 1 1 1 -0 0
9 10 7 5 5 4 4 5 4 4 3 3 4 4 4 4 4 4 4 3 3 3 3 3 3 2 3 3 2 2 3 3 2 1 1 1 0 0 0 0 1 1 1 2
8 7 6 5 4 3 3 3 3 3 3 3 4 4 4 4 4 3 4 3 3 3 4 3 3 2 2 2 2 2 2 2 1 1 0 -0 0 0 2 3 2 2 1 1
7 6 5 5 4 3 3 2 3 3 3 4 3 4 3 4 4 4 3 3 3 3 3 3 2 2 1 1 1 2 2 1 1 0 -0 0 0 1 2 4 5 3 2 2
9 5 5 5 3 3 3 3 3 4 4 3 3 3 3 3 3 3 3 4 2 2 2 3 3 1 1 1 1 2 2 1 1 1 1 1 1 2 9 8 9 10 10 8
6 3 3 3 2 2 3 3 3 4 3 3 3 3 3 3 3 4 4 3 3 3 2 3 2 1 1 1 1 1 0 1 -0 2 1 1 1 2 3 6 9 10 10 10
3 3 4 3 4 2 2 2 3 3 3 2 2 2 3 3 3 3 4 4 2 2 2 3 3 2 1 1 0 0 -0 5 1 1 1 1 2 2 3 3 4 4 9 9
3 3 3 2 2 2 2 2 3 3 3 3 2 3 3 4 4 4 4 2 2 2 2 3 4 4 3 1 0 -0 0 1 0 1 1 1 1 2 3 3 4 4 5 7
3 3 3 3 3 3 2 4 3 3 3 3 2 3 3 3 3 3 2 2 2 3 2 2 2 1 -0 -0 -0 -0 -0 4 3 1 2 2 2 3 3 4 4 4 5 6
4 5 4 4 4 3 3 4 4 4 4 3 2 2 2 4 3 2 2 2 2 1 1 1 1 -0 0 -1 -1 -0 0 0 4 1 2 3 3 3 3 4 4 4 5 7
2 2 2 2 3 3 3 3 4 3 4 4 1 1 2 3 4 3 2 1 1 1 1 0 -0 -0 -1 -1 -1 -1 0 1 2 2 2 3 3 3 3 4 4 4 4 6
2 2 2 2 2 2 2 4 3 3 3 4 3 1 1 2 2 2 1 2 2 2 1 -0 4 2 -1 2 4 1 1 1 2 2 2 5 3 3 4 4 4 4 5 5
2 2 2 2 1 2 3 2 2 2 3 3 3 1 1 1 1 1 1 2 1 1 -1 -1 -0 -1 -1 0 6 1 0 1 1 2 3 3 4 3 4 7 5 5 5 5
2 2 2 2 2 3 3 2 2 3 4 3 3 3 1 1 1 1 2 2 1 1 -0 2 -0 -1 -0 3 2 1 1 1 1 1 2 3 2 3 4 4 5 6 6 6
2 2 2 2 2 3 3 2 2 3 3 3 3 2 1 1 1 1 1 1 1 7 1 0 -0 4 2 8 0 -0 -0 -0 0 0 0 2 2 3 3 4 5 5 6 6
3 2 2 2 2 2 3 3 3 2 2 2 2 2 2 1 1 2 2 0 1 4 1 0 5 10 11 2 -0 1 0 0 -0 1 0 0 1 2 3 3 4 5 5 6
2 2 2 3 4 5 5 4 2 1 0 1 2 2 1 1 1 0 1 5 7 5 3 2 4 11 13 0 0 1 0 1 4 1 0 8 1 1 2 2 3 4 4 6
2 2 3 3 3 4 3 2 2 1 1 1 2 1 0 -1 0 1 0 1 7 5 2 8 11 12 3 1 -0 1 0 3 4 1 0 2 1 1 1 2 3 3 4 4
2 2 2 2 1 1 1 2 2 2 2 3 2 1 0 -0 -1 0 0 3 0 4 1 1 1 2 2 2 1 1 2 0 1 0 2 0 1 1 2 2 3 4 4 4
2 4 2 1 -0 0 1 1 2 2 3 2 3 1 1 0 0 1 3 1 0 1 1 1 1 3 1 1 2 2 2 1 3 -0 -0 -0 0 1 2 2 2 3 4 4